Yakima, WA
on Sunday, December 23, 2012

Sunday
Previous Day Next Day
Daily Summary
 ActualAverageRecord
Temperature
Mean Temperature °F 27°F  
Max Temperature 35°F 34°F 56°F (2013)
Min Temperature 22°F 21°F -13°F (1983)
Degree Days
Heating Degree Days 36 38  
Month to date heating degree days 687 831  
Since 1 July heating degree days 1925 2364  
Cooling Degree Days 0 0  
Month to date cooling degree days 0 0  
Year to date cooling degree days 667 472  
Moisture
Dew Point 30°F   
Average Humidity 87    
Maximum Humidity 92    
Minimum Humidity 81    
Precipitation
Precipitation 0.04 in 0.06 in 0.46 in (1964)
Month to date precipitation 1.67 1.15  
Year to date precipitation 8.86 7.87  
Snow
Snow 0.00 in 0.40 in 6.00 in (1964)
Month to date snowfall 7.9 7.0  
Year to date snowfall 30.1 19.2  
Since 1 July snowfall 8.6 10.6  
Snow Depth 0.00 in   
Wind
Wind Speed 3 mph   
Max Wind Speed 9 mph   
Max Gust Speed 10 mph   
Visibility 6 miles   
Events Rain , Snow   

Key: T is trace of precipitation, MM is missing value
Source: NWS Daily Summary
Time(PST)TemperatureDew PointHumidity Pressure Visibility Wind DirectionWind SpeedGust SpeedPrecipitationEvents Conditions
12:53 AM 25.0°F 21.9°F 88% 29.83 in 6.0 miles Calm Calm - N/A   Partly Cloudy
1:53 AM 24.1°F 21.9°F 91% 29.85 in 6.0 miles SSW 4.6 mph - N/A   Clear
2:53 AM 24.1°F 19.9°F 84% 29.86 in 7.0 miles West 3.5 mph - N/A   Clear
3:53 AM 24.8°F 21.2°F 86% 29.83 in 7.0 miles NW 9.2 mph - N/A   Overcast
4:53 AM 25.0°F 21.0°F 85% 29.87 in 10.0 miles Variable 3.5 mph - N/A   Mostly Cloudy
5:53 AM 26.1°F 23.0°F 88% 29.86 in 10.0 miles Calm Calm - N/A   Overcast
6:53 AM 28.0°F 24.1°F 85% 29.86 in 10.0 miles SW 3.5 mph - N/A   Mostly Cloudy
7:53 AM 28.9°F 25.0°F 85% 29.85 in 10.0 miles Calm Calm - N/A   Overcast
8:53 AM 28.9°F 26.1°F 89% 29.85 in 10.0 miles Calm Calm - N/A   Clear
9:53 AM 30.9°F 27.0°F 85% 29.82 in 10.0 miles Calm Calm - N/A   Scattered Clouds
10:53 AM 34.0°F 28.9°F 82% 29.80 in 10.0 miles WNW 4.6 mph - N/A   Mostly Cloudy
11:53 AM 34.0°F 30.0°F 85% 29.77 in 4.0 miles West 3.5 mph - 0.00 in Snow Light Snow
12:29 PM 35.6°F 30.2°F 81% 29.72 in 1.2 miles North 3.5 mph - 0.00 in Snow Light Snow
12:53 PM 35.1°F 32.0°F 89% 29.73 in 1.2 miles NW 5.8 mph - 0.00 in Snow Light Snow
1:08 PM 35.6°F 32.0°F 87% 29.69 in 1.5 miles NW 4.6 mph - 0.01 in Snow Light Snow
1:16 PM 35.6°F 32.0°F 87% 29.69 in 1.5 miles WNW 3.5 mph - 0.01 in Snow Light Snow
1:30 PM 35.6°F 32.0°F 87% 29.68 in 1.5 miles West 4.6 mph - 0.01 in Snow Light Snow
1:53 PM 35.1°F 32.0°F 89% 29.70 in 2.0 miles West 6.9 mph - 0.01 in Snow Light Snow
2:13 PM 35.6°F 32.0°F 87% 29.66 in 3.0 miles WSW 6.9 mph - 0.01 in Snow Light Snow
2:18 PM 35.6°F 32.0°F 87% 29.66 in 2.5 miles WSW 5.8 mph - 0.01 in Snow Light Snow
2:25 PM 35.6°F 32.0°F 87% 29.65 in 2.5 miles WSW 6.9 mph - 0.01 in Snow Light Snow
2:53 PM 35.1°F 32.0°F 89% 29.68 in 2.5 miles West 5.8 mph - 0.02 in Snow Light Snow
3:23 PM 35.6°F 32.0°F 87% 29.63 in 2.5 miles West 6.9 mph - 0.01 in Snow Light Snow
3:30 PM 35.6°F 32.0°F 87% 29.63 in 5.0 miles West 5.8 mph - 0.01 in   Overcast
3:53 PM 35.1°F 32.0°F 89% 29.66 in 7.0 miles West 4.6 mph - 0.01 in   Overcast
4:38 PM 35.6°F 30.2°F 81% 29.62 in 10.0 miles NW 5.8 mph - 0.00 in Snow Light Snow
4:53 PM 36.0°F 30.9°F 82% 29.65 in 4.0 miles NW 5.8 mph - 0.01 in Snow Light Snow
5:06 PM 35.6°F 32.0°F 87% 29.62 in 2.0 miles WNW 4.6 mph - 0.00 in Snow Light Snow
5:13 PM 35.6°F 32.0°F 87% 29.62 in 1.8 miles WNW 4.6 mph - 0.01 in Snow Light Snow
5:20 PM 35.6°F 32.0°F 87% 29.62 in 2.0 miles WNW 3.5 mph - 0.02 in Snow Light Snow
5:45 PM 33.8°F 32.0°F 93% 29.62 in 2.5 miles WSW 5.8 mph - 0.03 in Snow Light Snow
5:53 PM 34.0°F 32.0°F 92% 29.66 in 2.5 miles WSW 6.9 mph - 0.03 in Snow Light Snow
6:08 PM 33.8°F 32.0°F 93% 29.63 in 3.0 miles WSW 6.9 mph - 0.01 in Snow Light Snow
6:53 PM 35.1°F 32.0°F 89% 29.67 in 3.0 miles WSW 6.9 mph - 0.02 in Rain Light Rain
7:53 PM 36.0°F 33.1°F 89% 29.69 in 10.0 miles WSW 6.9 mph - 0.02 in Rain Light Rain
8:36 PM 35.6°F 33.8°F 93% 29.66 in 10.0 miles WSW 8.1 mph - 0.00 in Rain Light Rain
8:53 PM 36.0°F 33.1°F 89% 29.70 in 10.0 miles West 4.6 mph - 0.00 in Rain Light Rain
9:53 PM 35.1°F 33.1°F 92% 29.71 in 10.0 miles North 3.5 mph - 0.01 in   Mostly Cloudy
10:53 PM 35.1°F 32.0°F 89% 29.74 in 10.0 miles Calm Calm - N/A   Overcast
11:53 PM 35.1°F 32.0°F 89% 29.77 in 6.0 miles Calm Calm - N/A   Overcast
Moon Phase
Dec. 23 Dec. 28 Jan. 04 Jan. 11 Jan. 18
Sunrise:07:44 AM (PST) Moon Rise:01:19 PM (PST)12/23
Sunset:04:18 PM (PST) Moon Set:03:24 AM (PST)12/23

Copyright © 2014 The Weather Underground, Inc.